Home   Weather   Florianópolis   Past weeks

Flag for Brazil Past Weather in Florianópolis, Santa Catarina, Brazil — Yesterday and Last 2 Weeks

Now
70 °F

Passing clouds.


Feels Like: 70 °F
Forecast: 68 / 76 °F
Wind: 6 mph from North

Location: Florianopolis Aeroporto

Current Time: Dec 2, 2016 at 10:17:46 pm

Latest Report: Dec 2, 2016 at 9:00 pm


Visibility: N/A

Pressure: 29.98 "Hg

Humidity: 100%

Dew Point: 70 °F

Location of FlorianópolisLocation

Past Weather in Florianópolis — Graph

°F

Florianópolis Temperature Yesterday

Maximum temperature yesterday: 75 °F (at 12:00 pm)
Minimum temperature yesterday: 57 °F (at 6:00 am)
Average temperature yesterday: 68 °F

High & Low Weather Summary for the Past Weeks

 TemperatureHumidityPressure
High88 °F (Nov 28, 2:00 pm)100% (Nov 22, 8:00 pm)30.21 "Hg (Nov 22, 8:00 pm)
Low57 °F (Dec 1, 6:00 am)28% (Nov 24, 1:00 pm)29.80 "Hg (Nov 27, 5:00 pm)
Average70 °F78%30.00 "Hg
* Reported Nov 17 9:00 pm — Dec 2 9:00 pm, Florianópolis, Weather by CustomWeather, © 2016

Note: Actual official high and low records may vary slightly from our data, if they occured in-between our weather recording intervals... More about our weather records

Advertising

Florianópolis Weather History for the Previous 24 Hours

Scroll right to see more
 ConditionsComfort  
Time TempWeatherWind HumidityBarometerVisibility
9:00 pm
Fri, Dec 2
70 °FPassing clouds.6 mph100%29.98 "HgN/A
8:00 pm72 °FScattered showers. Passing clouds.12 mph88%29.98 "Hg6 mi
7:00 pm72 °FPartly sunny.13 mph88%29.98 "HgN/A
6:00 pm73 °FPartly sunny.10 mph83%30.01 "HgN/A
5:00 pm73 °FPartly sunny.13 mph78%30.01 "HgN/A
4:00 pm75 °FPartly sunny.14 mph78%30.04 "HgN/A
3:00 pm75 °FPartly sunny.15 mph74%30.04 "HgN/A
2:00 pm75 °FBroken clouds.14 mph74%30.07 "HgN/A
1:00 pm73 °FBroken clouds.14 mph78%30.09 "HgN/A
12:00 pm73 °FBroken clouds.13 mph78%30.09 "HgN/A
11:00 am73 °FBroken clouds.9 mph83%30.12 "HgN/A
10:00 am72 °FBroken clouds.12 mph88%30.12 "HgN/A
9:00 am70 °FBroken clouds.8 mph88%30.12 "HgN/A
8:00 am72 °FPartly sunny.8 mph78%30.12 "HgN/A
7:00 am70 °FPartly sunny.5 mph83%30.09 "HgN/A
6:00 am70 °FPartly cloudy.5 mph88%30.07 "HgN/A
5:00 am70 °FPassing clouds.6 mph88%30.07 "HgN/A
4:00 am70 °FPassing clouds.6 mph88%30.07 "HgN/A
3:00 am68 °FPassing clouds.3 mph100%30.07 "HgN/A
2:00 am66 °FPassing clouds.2 mph100%30.09 "HgN/A
1:00 am68 °FLight rain. Passing clouds.8 mph94%30.12 "HgN/A
12:00 am70 °FPassing clouds.6 mph83%30.12 "HgN/A
11:00 pm
Thu, Dec 1
70 °FPassing clouds.6 mph83%30.15 "HgN/A
10:00 pm70 °FPassing clouds.5 mph78%30.15 "HgN/A
Weather by CustomWeather, © 2016

See weather overviewHow to use our weather pages